Weather History for LEMG - July, 2013

Change the Weather History Date:

Thursday, July 18, 2013

  Actual Average Record
Temperature  
Mean Temperature 76 °F -  
Max Temperature 87 °F 85 °F 100 °F (2005)
Min Temperature 66 °F 67 °F 64 °F (1999)
Cooling Degree Days 12    
Growing Degree Days 26 (Base 50)    
Moisture  
Dew Point 58 °F    
Average Humidity 55    
Maximum Humidity 78    
Minimum Humidity 33    
Precipitation  
Precipitation 0.00 in 0.01 in - ()
Sea Level Pressure  
Sea Level Pressure 30.05 in    
Wind  
Wind Speed 5 mph ()    
Max Wind Speed 12 mph    
Max Gust Speed -    
Visibility 7.6 miles    
Events      
Averages and records for this station are not official NWS values.
T = Trace of Precipitation, MM = Missing Value Source: Averaged Metar Reports

Daily Weather History Graph

Daily Weather History Graph

Search for Another Location

Airport or City:

Trip Planner

Search our weather history database for the weather conditions in past years. The results will help you decide how hot, cold, wet, or windy it might be!

Date:

Astronomy

Jul. 18, 2013 Rise Set
Actual Time 7:13 AM CEST 9:34 PM CEST
Civil Twilight 6:43 AM CEST 10:04 PM CEST
Nautical Twilight 6:06 AM CEST 10:40 PM CEST
Astronomical Twilight 5:26 AM CEST 11:20 PM CEST
Moon 5:16 PM CEST (7/18) 2:50 AM CEST (7/18)
Length of Visible Light 15h 20m
Length of Day
14h 21m
Waxing Gibbous, 75% of the Moon is Illuminated
Jul 18
Waxing Gibbous
Jul 22
Full
Jul 29
Last Quarter
Aug 6
New
Aug 14
First Quarter

Hourly Weather History & Observations

Time (CEST) Temp. Heat Index Dew Point Humidity Pressure Visibility Wind Dir Wind Speed Gust Speed Precip Events Conditions
12:00 AM 73.4 °F - 60.8 °F 65% 30.09 in - Calm Calm - N/A   Clear
12:30 AM 73.4 °F - 60.8 °F 65% 30.09 in - Calm Calm - N/A   Clear
1:00 AM 73.4 °F - 59.0 °F 61% 30.09 in - Calm Calm - N/A   Clear
1:30 AM 71.6 °F - 57.2 °F 60% 30.09 in - Calm Calm - N/A   Clear
2:00 AM 74 °F - 58 °F 47% 30.10 in 9 mi NW 2.3 mph - -  
2:00 AM 68.0 °F - 57.2 °F 68% 30.09 in - NW 2.3 mph - N/A   Clear
2:30 AM 69.8 °F - 55.4 °F 60% 30.06 in - WNW 4.6 mph - N/A   Clear
3:00 AM 69.8 °F - 55.4 °F 60% 30.06 in - WNW 4.6 mph - N/A   Clear
3:30 AM 69.8 °F - 53.6 °F 56% 30.06 in - WNW 6.9 mph - N/A   Clear
4:00 AM 68.0 °F - 53.6 °F 60% 30.06 in - WNW 6.9 mph - N/A   Clear
4:30 AM 68.0 °F - 53.6 °F 60% 30.06 in - WNW 6.9 mph - N/A   Clear
5:00 AM 68.0 °F - 53.6 °F 60% 30.06 in - WNW 8.1 mph - N/A   Clear
5:30 AM 68.0 °F - 53.6 °F 60% 30.06 in - WNW 9.2 mph - N/A   Clear
6:00 AM 66.2 °F - 53.6 °F 64% 30.06 in - WNW 8.1 mph - N/A   Clear
6:30 AM 66.2 °F - 53.6 °F 64% 30.06 in - WNW 9.2 mph - N/A   Clear
7:00 AM 66.2 °F - 53.6 °F 64% 30.06 in - WNW 8.1 mph - N/A   Clear
7:30 AM 66.2 °F - 51.8 °F 60% 30.06 in - West 10.4 mph - N/A   Clear
8:00 AM 68 °F - 53 °F 48% 30.07 in 22 mi WNW 6.9 mph - -  
8:00 AM 66.2 °F - 51.8 °F 60% 30.06 in - WNW 5.8 mph - N/A   Clear
8:30 AM 68.0 °F - 53.6 °F 60% 30.06 in - WNW 5.8 mph - N/A   Clear
9:00 AM 71.6 °F - 53.6 °F 53% 30.06 in - WNW 8.1 mph - N/A   Clear
9:30 AM 75.2 °F - 51.8 °F 44% 30.06 in - WNW 4.6 mph - N/A   Clear
10:00 AM 78.8 °F - 53.6 °F 42% 30.06 in - Variable 1.2 mph - N/A   Clear
10:30 AM 80.6 °F 80.5 °F 55.4 °F 42% 30.06 in - Variable 1.2 mph - N/A   Clear
11:00 AM 80.6 °F 80.5 °F 55.4 °F 42% 30.06 in - SE 6.9 mph - N/A   Clear
11:30 AM 80.6 °F 80.5 °F 55.4 °F 42% 30.06 in - SE 8.1 mph - N/A   Clear
12:00 PM 80.6 °F 80.8 °F 57.2 °F 45% 30.06 in - SE 9.2 mph - N/A   Clear
12:30 PM 80.6 °F 80.8 °F 57.2 °F 45% 30.06 in - SE 10.4 mph - N/A   Clear
1:00 PM 80.6 °F 81.5 °F 60.8 °F 51% 30.06 in - SE 11.5 mph - N/A   Clear
1:30 PM 80.6 °F 81.8 °F 62.6 °F 54% 30.06 in - SE 10.4 mph - N/A   Clear
2:00 PM 84 °F - 67 °F 46% 30.08 in 16 mi SE 11.5 mph - -  
2:00 PM 80.6 °F 82.3 °F 64.4 °F 58% 30.06 in - SE 11.5 mph - N/A   Clear
2:30 PM 80.6 °F 82.3 °F 64.4 °F 58% 30.06 in - SE 10.4 mph - N/A   Clear
3:00 PM 78.8 °F - 64.4 °F 61% 30.06 in - SE 9.2 mph - N/A   Clear
3:30 PM 80.6 °F 81.8 °F 62.6 °F 54% 30.06 in - SE 6.9 mph - N/A   Clear
4:00 PM 80.6 °F 82.3 °F 64.4 °F 58% 30.06 in 6.2 mi SE 6.9 mph - N/A   Partly Cloudy
4:30 PM 82.4 °F 82.0 °F 57.2 °F 42% 30.04 in 6.2 mi ESE 6.9 mph - N/A   Partly Cloudy
5:00 PM 84.2 °F - 51.8 °F 33% 30.04 in 6.2 mi ESE 5.8 mph - N/A   Partly Cloudy
5:30 PM 82.4 °F - 51.8 °F 35% 30.04 in 6.2 mi SE 8.1 mph - N/A   Partly Cloudy
6:00 PM 82.4 °F 82.0 °F 57.2 °F 42% 30.01 in 6.2 mi SE 6.9 mph - N/A   Partly Cloudy
6:30 PM 82.4 °F 82.0 °F 57.2 °F 42% 30.01 in 6.2 mi SE 8.1 mph - N/A   Partly Cloudy
7:00 PM 82.4 °F 82.0 °F 57.2 °F 42% 30.01 in 6.2 mi SSE 6.9 mph - N/A   Partly Cloudy
7:30 PM 80.6 °F 80.8 °F 57.2 °F 45% 30.01 in 6.2 mi SSE 9.2 mph - N/A   Partly Cloudy
8:00 PM 83 °F - 60 °F 36% 30.01 in 9 mi SE 8.1 mph - -  
8:00 PM 80.6 °F 81.1 °F 59.0 °F 48% 30.01 in - SE 9.2 mph - N/A   Clear
8:30 PM 78.8 °F - 60.8 °F 54% 30.01 in - SE 6.9 mph - N/A   Clear
9:00 PM 77.0 °F - 62.6 °F 61% 30.01 in - ESE 5.8 mph - N/A   Clear
9:30 PM 75.2 °F - 66.2 °F 73% 30.01 in - ESE 5.8 mph - N/A   Clear
10:00 PM 75.2 °F - 68.0 °F 78% 30.04 in - East 4.6 mph - N/A   Clear
10:30 PM 73.4 °F - 66.2 °F 78% 30.04 in - East 3.5 mph - N/A   Clear
11:00 PM 75.2 °F - 66.2 °F 73% 30.04 in - East 4.6 mph - N/A   Clear
11:30 PM 75.2 °F - 62.6 °F 65% 30.04 in - ENE 3.5 mph - N/A   Clear